210  
SXUS51 KOKX 231657  
OSOOKX  
NEW YORK CITY METROPOLITAN AREA WEATHER ROUNDUP  
NATIONAL WEATHER SERVICE NEW YORK NY  
1200 PM EST SAT JAN 23 2021  
 
CITY SKY/WX TMP DP RH WIND PRES REMARKS  
CENTRAL PARK CLOUDY 31 7 36 W13G25 30.06F WCI 21  
LAGUARDIA ARPT PTSUNNY 32 9 38 NW22G33 30.04F WCI 19  
KENNEDY INTL MOSUNNY 32 7 35 NW25G35 30.05S WCI 19  
NEWARK LIBERTY MOSUNNY 32 7 35 W22G35 30.07F WCI 19  
TETERBORO ARPT CLOUDY 30 9 41 NW20G30 30.05F WCI 17  
BRONX LEHMAN C N/A 30 10 43 NW16G28 N/A WCI 19  
QUEENS COLLEGE N/A 30 9 40 NW18G32 N/A WCI 18  
BREEZY POINT NOT AVBL  
BROOKLYN COLL N/A 32 9 37 NW26G38 N/A WCI 18  
STATEN ISLAND N/A 32 9 37 NW18 N/A WCI 20  
 
>>>>>>>>>>>>>>>>>>>>>>>>>>>>>>>>> KEY <<<<<<<<<<<<<<<<<<<<<<<<<<<<<<<  
> SKY/WX - SKY CONDITION/PRESENT : R : WCI - WIND CHILL INDEX <  
> WEATHER : E : VSB - VISIBILITY IN MILES <  
> TMP - TEMPERATURE IN DEG F : M : HX - HEAT INDEX <  
> DP - DEW POINT TEMPERATURE : A : TC - TEMPERATURE IN <  
> RH - RELATIVE HUMIDITY : R : CELSIUS <  
> WIND - DIRECTION/SPEED (MPH) : K : VRB - VARIABLE WIND DIR <  
> PRES - PRESSURE (IN HG) : S : <  
>>>>>>>>>>>>>>>>>>>>>>>>>>>>>>>>> KEY <<<<<<<<<<<<<<<<<<<<<<<<<<<<<<<  
 
 
CLICK HERE TO GO TO PREVIOUS BULLETINS.

The Nexlab NY Page
The Nexlab NJ Page
The Nexlab CT Page Main Text Page